WA2GUG Weather Reports


Display with metric or nautical units.
time (UTC)temp
F
wind
direction
speed
MPH
gust
MPH
rain 1hr
in
rain 24hr
in
rain mn
in
humidity
%
barometer
mb
20181113005839 42 31 1.0 5.0 0.00 0.00 0.00 87 1021.0
20181113004339 42 135 1.0 3.0 0.00 0.00 0.00 84 1020.0
20181113002339 41 191 1.0 4.0 0.00 0.00 0.00 91 1020.0
20181113001339 40 198 2.0 4.0 0.00 0.00 0.00 93 1020.0
20181113000339 41 153 1.0 5.0 0.00 0.00 0.00 89 1020.0
20181112234340 38 82 0.0 1.0 0.00 0.00 0.00 92 1020.1
20181112233340 38 50 0.0 1.0 0.00 0.00 0.00 95 1020.0
20181112232339 38 312 0.0 1.0 0.00 0.00 0.00 94 1020.0
20181112230839 39 64 0.0 0.0 0.00 0.00 0.00 92 1021.0
20181112224339 41 95 0.0 1.0 0.00 0.00 0.00 84 1021.0
20181112222339 42 270 0.0 0.0 0.00 0.00 0.00 86 1021.0
20181112221839 42 292 0.0 0.0 0.00 0.00 0.00 89 1021.0
20181112220339 43 217 0.0 2.0 0.00 0.00 0.00 83 1021.0
20181112215839 43 182 0.0 2.0 0.00 0.00 0.00 89 1021.0
20181112214340 44 189 0.0 1.0 0.00 0.00 0.00 84 1021.1
20181112212840 45 120 1.0 2.0 0.00 0.00 0.00 81 1021.0
20181112204839 47 112 1.0 4.0 0.00 0.00 0.00 74 1021.0
20181112203839 49 85 99.0 99.0 0.00 0.00 0.00 89 1021.0
20181112202339 50 112 1.0 3.0 0.00 0.00 0.00 84 1021.0
20181112201838 51 118 1.0 3.0 0.00 0.00 0.00 79 1021.0
20181112201339 51 146 2.0 3.0 0.00 0.00 0.00 76 1021.0
20181112200838 52 130 1.0 4.0 0.00 0.00 0.00 63 1021.0
20181112195839 52 135 1.0 3.0 0.00 0.00 0.00 68 1021.0
20181112195339 53 9 1.0 3.0 0.00 0.00 0.00 81 1021.0
20181112194839 52 184 1.0 3.0 0.00 0.00 0.00 71 1021.0
20181112193338 54 127 1.0 3.0 0.00 0.00 0.00 66 1021.0
20181112192840 53 189 1.0 3.0 0.00 0.00 0.00 87 1021.0
20181112191341 55 105 2.0 4.0 0.00 0.00 0.00 84 1021.0
20181112190339 53 101 2.0 4.0 0.00 0.00 0.00 88 1021.0
20181112183339 54 142 2.0 4.0 0.00 0.00 0.00 64 1021.0
20181112182339 52 184 199.0 99.0 0.00 0.00 0.00 74 1021.0
20181112181339 53 127 2.0 5.0 0.00 0.00 0.00 69 1021.0
20181112175839 53 149 2.0 4.0 0.00 0.00 0.00 69 1021.0
20181112173339 57 160 2.0 4.0 0.00 0.00 0.00 74 1021.1
20181112170840 55 234 2.0 5.0 0.00 0.00 0.00 88 1021.1
20181112165338 58 139 2.0 3.0 0.00 0.00 0.00 67 1022.0
20181112164838 56 185 2.0 4.0 0.00 0.00 0.00 62 1022.0
20181112164339 55 175 2.0 4.0 0.00 0.00 0.00 66 1022.0
20181112163839 55 213 2.0 6.0 0.00 0.00 0.00 63 1022.0
20181112163339 56 208 2.0 6.0 0.00 0.00 0.00 74 1022.0
20181112162339 57 141 2.0 4.0 0.00 0.00 0.00 65 1020.0
20181112161839 57 146 2.0 3.0 0.00 0.00 0.00 66 1022.0
20181112161339 56 202 2.0 3.0 0.00 0.00 0.00 61 1022.0
20181112160839 58 162 2.0 3.0 0.00 0.00 0.00 82 1022.0
20181112155840 55 180 2.0 4.0 0.00 0.00 0.00 66 1022.1
20181112154839 55 146 2.0 3.0 0.00 0.00 0.00 73 1023.0
20181112150338 48 200 1.0 3.0 0.00 0.00 0.00 90 1023.0
20181112145838 44 115 1.0 3.0 0.00 0.00 0.00 81 1023.0
20181112143838 37 211 1.0 2.0 0.00 0.00 0.00 95 1023.0
20181112134838 40 45 0.0 1.0 0.00 0.00 0.00 88 1023.0
20181112133338 40 266 0.0 1.0 0.00 0.00 0.00 88 1023.0
20181112132839 40 236 0.0 2.0 0.00 0.00 0.00 88 1023.0
20181112131839 41 319 0.0 1.0 0.00 0.00 0.00 86 1023.0
20181112131339 40 285 0.0 0.0 0.00 0.00 0.00 86 1023.0
20181112130838 39 210 0.0 0.0 0.00 0.00 0.00 80 1023.0
20181112125838 38 285 0.0 0.0 0.00 0.00 0.00 85 1022.0
20181112124838 37 279 0.0 0.0 0.00 0.00 0.00 93 1022.0
20181112124338 35 298 0.0 0.0 0.00 0.00 0.00 87 1022.0
20181112123839 33 264 0.0 0.0 0.00 0.00 0.00 92 1022.0
20181112122839 28 28 0.0 0.0 0.00 0.00 0.00 98 1022.0
20181112121838 21 67 0.0 0.0 0.00 0.00 0.00 99 1022.0
20181112120838 20 326 0.0 0.0 0.00 0.00 0.00 99 1022.0
20181112115838 20 26 0.0 0.0 0.00 0.00 0.00 99 1022.0
20181112115339 20 16 0.0 0.0 0.00 0.00 0.00 99 1022.0
20181112113839 20 289 0.0 0.0 0.00 0.00 0.00 99 1022.0
20181112113338 20 352 0.0 0.0 0.00 0.00 0.00 99 1022.0
20181112112838 20 331 0.0 0.0 0.00 0.00 0.00 99 1022.0
20181112112338 20 37 0.0 0.0 0.00 0.00 0.00 99 1022.0
20181112111338 20 337 0.0 0.0 0.00 0.00 0.00 99 1022.0
20181112110838 20 345 0.0 1.0 0.00 0.00 0.00 99 1022.0
20181112110338 20 297 0.0 1.0 0.00 0.00 0.00 99 1021.1
20181112105838 20 45 0.0 0.0 0.00 0.00 0.00 99 1022.0
20181112104339 20 45 0.0 1.0 0.00 0.00 0.00 99 1022.0
20181112103838 21 326 0.0 1.0 0.00 0.00 0.00 99 1022.0
20181112102838 21 48 0.0 1.0 0.00 0.00 0.00 99 1022.0
20181112102338 21 292 0.0 1.0 0.00 0.00 0.00 99 1022.0
20181112101838 21 26 0.0 0.0 0.00 0.00 0.00 99 1022.0
20181112101338 21 35 0.0 1.0 0.00 0.00 0.00 99 1022.0
20181112100838 21 348 0.0 1.0 0.00 0.00 0.00 99 1022.0
20181112100338 21 6 0.0 0.0 0.00 0.00 0.00 99 1022.0
20181112095838 21 49 0.0 0.0 0.00 0.00 0.00 99 1022.0
20181112095338 21 18 0.0 0.0 0.00 0.00 0.00 99 1022.0
20181112094838 22 216 0.0 1.0 0.00 0.00 0.00 99 1022.0
20181112093338 22 337 0.0 0.0 0.00 0.00 0.00 99 1022.0
20181112092838 22 320 0.0 1.0 0.00 0.00 0.00 99 1022.0
20181112092338 23 22 0.0 2.0 0.00 0.00 0.00 99 1022.0
20181112091838 23 83 0.0 2.0 0.00 0.00 0.00 99 1022.0
20181112091339 23 305 0.0 1.0 0.00 0.00 0.00 99 1022.0
20181112090838 23 67 0.0 1.0 0.00 0.00 0.00 99 1022.0
20181112090338 23 330 0.0 1.0 0.00 0.00 0.00 99 1022.0
20181112085838 24 326 0.0 1.0 0.00 0.00 0.00 99 1022.0
20181112085338 24 9 0.0 1.0 0.00 0.00 0.00 99 1022.0
20181112084838 24 337 0.0 0.0 0.00 0.00 0.00 99 1022.0
20181112083838 24 315 0.0 0.0 0.00 0.00 0.00 99 1022.0
20181112083339 24 310 0.0 99.0 0.00 0.00 0.00 99 1022.0
20181112081838 23 326 0.0 2.0 0.00 0.00 0.00 99 1022.0
20181112081338 22 48 0.0 2.0 0.00 0.00 0.00 99 1022.0
20181112075838 21 282 0.0 1.0 0.00 0.00 0.00 99 1022.0
20181112075338 21 277 0.0 1.0 0.00 0.00 0.00 99 1022.0
20181112074338 22 67 0.0 0.0 0.00 0.00 0.00 99 1022.0
20181112072338 22 288 0.0 2.0 0.00 0.00 0.00 99 1022.0
20181112071838 22 22 0.0 2.0 0.00 0.00 0.00 99 1022.0
20181112071338 22 0 0.0 2.0 0.00 0.00 0.00 99 1022.0
20181112070838 22 326 0.0 1.0 0.00 0.00 0.00 99 1022.0
20181112070338 23 343 0.0 1.0 0.00 0.00 0.00 99 1021.1
20181112065838 22 15 0.0 1.0 0.00 0.00 0.00 97 1022.0
20181112065338 22 298 0.0 0.0 0.00 0.00 0.00 99 1022.0
20181112064838 22 26 0.0 0.0 0.00 0.00 0.00 99 1022.0
20181112064338 23 67 0.0 0.0 0.00 0.00 0.00 99 1022.0
20181112063338 22 292 0.0 0.0 0.00 0.00 0.00 99 1022.0
20181112062840 22 7 0.0 99.0 0.00 0.00 0.00 99 1022.0
20181112061838 22 351 0.0 0.0 0.00 0.00 0.00 99 1022.0
20181112060838 22 263 0.0 0.0 0.00 0.00 0.00 99 1022.0
20181112060338 22 22 0.0 0.0 0.00 0.00 0.00 99 1022.0
20181112055838 22 292 0.0 0.0 0.00 0.00 0.00 99 1022.0
20181112055338 22 283 0.0 1.0 0.00 0.00 0.00 99 1022.0
20181112054838 22 330 0.0 1.0 0.00 0.00 0.00 99 1022.0
20181112054338 22 292 0.0 1.0 0.00 0.00 0.00 99 1022.0
20181112053838 22 320 0.0 0.0 0.00 0.00 0.00 99 1022.0
20181112053338 22 307 0.0 0.0 0.00 0.00 0.00 99 1022.0
20181112052338 22 298 0.0 0.0 0.00 0.00 0.00 99 1022.0
20181112051838 22 322 0.0 0.0 0.00 0.00 0.00 99 1022.0
20181112050838 22 319 0.0 0.0 0.00 0.00 0.00 99 1022.0
20181112045838 23 292 0.0 1.0 0.00 0.00 0.00 99 1022.0
20181112044338 23 31 0.0 1.0 0.00 0.00 0.00 99 1022.0
20181112043838 23 20 0.0 1.0 0.00 0.00 0.00 99 1022.0
20181112040839 23 309 0.0 0.0 0.00 0.00 0.00 99 1022.0
20181112035838 24 67 0.0 0.0 0.00 0.00 0.00 99 1022.0
20181112035338 24 33 0.0 0.0 0.00 0.00 0.00 99 1022.0
20181112033838 24 22 0.0 0.0 0.00 0.00 0.00 99 1022.0
20181112033338 24 334 0.0 0.0 0.00 0.00 0.00 97 1022.0
20181112032338 24 331 0.0 1.0 0.00 0.00 0.00 99 1022.0
20181112031838 24 0 0.0 1.0 0.00 0.00 0.00 99 1022.0
20181112030839 25 320 0.0 0.0 0.00 0.00 0.00 99 1022.0
20181112030338 25 7 0.0 1.0 0.00 0.00 0.00 99 1021.1
20181112025837 25 347 0.0 1.0 0.00 0.00 0.00 99 1022.0
20181112024838 25 292 0.0 0.0 0.00 0.00 0.00 99 1022.0
20181112023837 25 337 0.0 1.0 0.00 0.00 0.00 99 1022.0
20181112021837 25 303 0.0 1.0 0.00 0.00 0.00 99 1022.0
20181112021337 25 38 0.0 0.0 0.00 0.00 0.00 99 1022.0
20181112020838 25 53 0.0 0.0 0.00 0.00 0.00 99 1022.0
20181112020337 25 322 0.0 0.0 0.00 0.00 0.00 99 1022.0
20181112015837 25 282 0.0 0.0 0.00 0.00 0.00 99 1022.0
20181112014838 26 31 0.0 0.0 0.00 0.00 0.00 99 1022.0
20181112014337 26 51 0.0 99.0 0.00 0.00 0.00 99 1022.0
20181112013837 26 202 46.0 99.0 0.00 0.00 0.00 99 1022.0
20181112012838 26 192 0.0 0.0 0.00 0.00 0.00 99 1022.0
20181112012337 26 292 0.0 0.0 0.00 0.00 0.00 99 1022.0
20181112011838 26 349 0.0 0.0 0.00 0.00 0.00 99 1022.0
20181112011337 26 45 0.0 0.0 0.00 0.00 0.00 99 1022.0